Location: Blandford
(50.8667°N, 2.1667°W)
Time: 22:49:15
(UTC+00:00)

Cosmos 2278 - Pass Details

Date: 09 April 2020
Orbit: 840 x 852 km, 71.1° (Epoch: 27 May)

Event Time Altitude Azimuth Distance (km) Brightness Sun altitude
Rises 22:05:08 0° 329° (NNW) 3,407 8.2 -25.2°
Reaches altitude 10° 22:07:35 10° 327° (NNW) 2,470 7.2 -25.4°
Maximum altitude 22:13:14 73° 244° (WSW) 884 3.7 -25.9°
Enters shadow 22:13:49 67° 200° (SSW) 916 3.6 -26.0°
